Regional Weather Roundup
Issued by NWS

Home | Current Version | Previous Version | Graphics & Text | Print | Product List | Glossary On
Versions: 1 2 3 4 5 6 7 8 9 10 11 12 13 14 15 16 17 18 19 20 21 22 23 24 25 26 27 28 29 30 31 32 33 34 35 36 37 38 39 40 41 42 43 44 45 46 47 48 49 50
000
ASUS45 KBOU 221107
RWRCO

WEATHER ROUNDUP FOR COLORADO
NATIONAL WEATHER SERVICE DENVER/BOULDER CO
400 AM MST SUN JAN 22 2017

NOTE: "FAIR" INDICATES FEW OR NO CLOUDS BELOW 12000 FEET WITH NO
SIGNIFICANT WEATHER AND/OR OBSTRUCTIONS TO VISIBILITY.

COZ001>005-013-030-031-221200-
...NORTHWEST COLORADO...

CITY           SKY/WX    TMP DP  RH WIND       PRES   REMARKS
CRAIG          CLOUDY    22  16  78 W3        29.97R
HAYDEN         CLOUDY    23  16  74 CALM      29.96R
MEEKER         CLOUDY    22  20  92 CALM      29.98R
MOUNT WERNER   NOT AVBL
STEAMBOAT SPGS CLOUDY    22  20  91 SW7       29.94R WCI  14
WALDEN           N/A     18  12  79 E3        29.87R
$$

COZ006>008-011-221200-
...WEST CENTRAL VALLEYS...

CITY           SKY/WX    TMP DP  RH WIND       PRES   REMARKS
GRAND JUNCTION FAIR      25  24  96 CALM      30.00S
MONTROSE       FAIR      26  24  92 SE8       30.03R WCI  18
EAGLE          CLOUDY    23  20  88 E7        29.97R WCI  15
RIFLE          CLOUDY    31  28  89 W7        29.99R WCI  24
DELTA          FAIR      32  23  69 W8        30.01R WCI  25
NUCLA          FAIR      21  18  86 E9        30.04S WCI  11
$$

COZ017>023-064>068-221200-
...SOUTHWEST COLORADO...

CITY           SKY/WX    TMP DP  RH WIND       PRES   REMARKS
DURANGO        FAIR       9   6  88 VRB5      29.97R WCI   1
CORTEZ         FAIR      10   9  95 NE6       30.03R WCI   0
PAGOSA SPRINGS CLOUDY    21  21  98 CALM      29.96R
TELLURIDE      FAIR      17  12  82 SW6       29.97F WCI   9
WOLF CREEK PAS   N/A      7   5  92 CALM      29.91R
$$

COZ009-010-012-014-032>034-037-058>063-221200-
...CENTRAL COLORADO...

CITY           SKY/WX    TMP DP  RH WIND       PRES   REMARKS
ASPEN          LGT SNOW  22  21  96 CALM      29.92R FOG
BUENA VISTA    FAIR      24   6  47 W13G18    29.86R WCI  12
COPPER MTN     NOT AVBL
BERTHOUD PASS  NOT AVBL
COTTONWOOD PAS CLOUDY    21   9  58 W9        29.84R WCI  11
GUNNISON       FAIR      13  10  88 VRB6      29.94R WCI   4
KREMMLING      MOCLDY    21  16  79 NW3       29.93R
LEADVILLE      LGT SNOW  14  10  84 NW9       29.84R FOG     WCI   2
MONARCH PASS   CLOUDY     9   5  85 NW8       29.92R WCI  -4
SALIDA         FAIR      24  14  66 CALM      29.95R
SUNLIGHT       CLOUDY   N/A N/A N/A MISG      29.93R
WILKERSON PASS FAIR      10   3  72 NW12G18   29.81R WCI  -4
$$

COZ069>075-221200-
...SAN LUIS VALLEY/SANGRE DE CRISTO MOUNTAINS...

CITY           SKY/WX    TMP DP  RH WIND       PRES   REMARKS
ALAMOSA        FAIR      -2  -4  91 CALM      29.89R
LA VETA PASS   FAIR      16  12  86 NE26G38   29.80R WCI  -3
SAGUACHE       FAIR      23  12  63 N13       29.90R WCI  11
$$

COZ035-036-038>040-221200-
...NORTHERN COLORADO FRONT RANGE...

CITY           SKY/WX    TMP DP  RH WIND       PRES   REMARKS
DENVER INTL AP FAIR      26  21  81 SW8       29.79R WCI  18
DMNS CITY PARK   N/A     35  12  38 W13       29.80R WCI  27
AURORA         PTCLDY    28  19  69 W6        29.80R WCI  21
FRONT RANGE AP FAIR      32  27  80 SW9       29.80R WCI  24
ERIE MUNI ARPT FAIR      25  21  83 CALM      29.80R
BOULDER MUN AP FAIR      34  14  44 SW6       29.79R WCI  29
CENTENNIAL     FAIR      25  18  74 SW7       29.79R WCI  17
BROOMFIELD     FAIR      32  16  51 W7        29.80R WCI  26
FORT COLLINS   FAIR      32  19  59 NW9G16    29.80R WCI  24
LONGMONT       FAIR      30  23  74 CALM      29.82R
$$

COZ041-046-047-076>085-087-088-221200-
...PIKES PEAK/PALMER DIVIDE AND SOUTHERN FOOTHILLS...

CITY           SKY/WX    TMP DP  RH WIND       PRES   REMARKS
COLO. SPRINGS  MOCLDY    31  19  61 NW10      29.79R WCI  22
A. F. ACADEMY  FAIR      22  16  75 N8        29.79R WCI  13
SCHRIEVER AFB  NOT AVBL
ELLICOTT       FAIR     N/A N/A N/A N8        29.78R
FALCON         FAIR      28  19  71 NW8       29.80R WCI  19
FORT CARSON    NOT AVBL
LIMON          FAIR      25  24  96 CALM      29.77R
MONUMENT HILL  FAIR      21  18  86 W7        29.80R WCI  13
TRINIDAD       FAIR      21  16  81 W12       29.80R WCI   9
$$

COZ042>045-048>051-090-091-221200-
...NORTHEAST COLORADO...

CITY           SKY/WX    TMP DP  RH WIND       PRES   REMARKS
GREELEY ARPT   FAIR      27  23  85 W7        29.80R WCI  19
AKRON          FAIR      30  22  72 NW13      29.75R WCI  20
BURLINGTON     CLOUDY    32  28  85 W9        29.74R WCI  24
WRAY           NOT AVBL
STERLING       FAIR      32  25  74 NW12      29.75S WCI  23
HOLYOKE        FAIR      34  28  80 NW9       29.75R WCI  26
FORT MORGAN    FAIR      30  22  71 W6        29.78R WCI  24
$$

COZ086-089-092>099-221200-
...SOUTHEAST COLORADO...

CITY           SKY/WX    TMP DP  RH WIND       PRES   REMARKS
PUEBLO         FAIR      26  23  88 W9        29.80R WCI  17
LA JUNTA       FAIR      28  24  85 W14       29.78R WCI  17
LAMAR          FAIR      27  24  89 SW8       29.75R WCI  19
SPRINGFIELD      N/A     28  26  92 NW10      29.74R WCI  19
$$



USA.gov is the U.S. government's official web portal to all federal, state and local government web resources and services.